STARLINK-31965, 59888

Orbit data source: Space-Track

STARLINK-31965, 59888 is a payload satellite owned by SpaceX/Seattle (US) in LEO that was launched on Tue, 28 May 2024 UTC via an FALCON 9 launch vehicle from the Air Force Eastern Test Range (AFETR). Payload-class satellites include a variety of spacecraft equipped with specific instruments for various scientific and technological missions. These include communications satellites like Starlink; space stations such as the ISS; scientific satellites like the Hubble; Earth observation satellites from companies like Planet Labs, Umbra, and HawkEye 360; GPS; miniature CubeSats for education and research; and military/defense satellites.

Loading next visibility...
Identifier
59888, 2024-100D
Orbit
LEO
Country
Flag of USUS
Related business
Manufacturer
SpaceX/Seattle
Mission
Operational Commercial Communications
Bus & Motor
STARLINK V2M, Unknown motor
Mass
730 kg wet, ~700 kg dry
Launch date (UTC)
2024-05-28 (2 years ago)
Launch vehicle
FALCON 9
Launch site
Air Force Eastern Test Range (AFETR)
Object type
Payload
Rocket body
Debris
Shape & HBR
Box + 2 Pan, 17.7 m
Radar Cross Section
33.884 m², Large (>1 m²)

Expand to show TLE details & history
Last TLE update: 8 hours ago

TLE from 8 hours ago
0 STARLINK-31965
1 59888U 24100D   26036.44698009  .00038182  00000-0  13889-2 0  9995
2 59888  43.0037 307.6725 0001476 274.1421  85.9262 15.27603643 96123
Epoch: 2026-02-05T10:43Z
TLE epoch observation values (Epoch: 2026-02-05T10:43:39.079Z)
Latitude
-0.00003°
Longitude
11.16056°
Altitude
482.682 km
Speed
7.626 km/s
True Right ascension
20h 30m 41s
True Declination
0° 00' 00"
Sunlit
Object was in daylight at epoch
Visualization orbit readout
Latitude
Unknown
Longitude
Unknown
Altitude
Unknown
Speed
Unknown
Apparent Right ascension
Unknown
Apparent Declination
Unknown
Sunlit
N/A
Visualization observer readout
Local Sidereal Time
20:17:32
Azimuth
Unknown
Elevation
Unknown
Doppler factor
Unknown
Orbital elements
Apogee altitude
485.936 km
Perigee altitude
483.91 km
Semi-major axis
6,863.06 km
Eccentricity
0.00015
Inclination
43.0037°
RAAN
307.6725°
Arg. of periapsis
274.1421°
True anomaly
85.94307°
Mean anomaly
85.9262°
Eccentric anomaly
85.93464°
Mean motion
3.81739 °/min
Orbital period
94.31 mins
BSTAR
0.0013889
Loading maneuver chart data...
Computing Atmospheric mass density...
Loading historical data...
Loading historical data...
Loading historical data...
Loading historical data...
Loading historical data...
Loading historical data...
Loading historical data...

Documentation

Showing up to 5 results
|